Trenton, NJ

6:33 PM EDT on June 24, 2017 (GMT -0400)
Trenton Mercer

Weather History for KTTN - August, 2012

Change the Weather History Date:

Sunday, August 5, 2012

  Actual Average Record
Temperature  
Mean Temperature 83 °F 75 °F  
Max Temperature 92 °F 85 °F 98 °F (1955)
Min Temperature 73 °F 66 °F 51 °F (1929)
Degree Days  
Heating Degree Days 0 0  
Month to date heating degree days 0 0  
Since 1 June heating degree days 22 24  
Since 1 July heating degree days 0 0  
Cooling Degree Days 18 10  
Month to date cooling degree days 73 51  
Year to date cooling degree days 856 628  
Since 1 June cooling degree days 700 571  
Growing Degree Days 32 (Base 50)    
Moisture  
Dew Point 72 °F    
Average Humidity 71    
Maximum Humidity 94    
Minimum Humidity 47    
Precipitation  
Precipitation 0.43 in 0.15 in 3.10 in (1904)
Month to date precipitation 0.65 0.74  
Year to date precipitation 21.69 27.62  
Sea Level Pressure  
Sea Level Pressure 30.07 in    
Wind  
Wind Speed 10 mph (SW)    
Max Wind Speed 25 mph    
Max Gust Speed 35 mph    
Visibility 8 miles    
Events Rain , Thunderstorm    
T = Trace of Precipitation, MM = Missing Value Source: NWS Daily Summary

Daily Weather History Graph

Daily Weather History Graph

Search for Another Location

Airport or City:

Trip Planner

Search our weather history database for the weather conditions in past years. The results will help you decide how hot, cold, wet, or windy it might be!

Date:

Astronomy

Aug. 05, 2012 Rise Set
Actual Time 6:01 AM EDT 8:08 PM EDT
Civil Twilight 5:31 AM EDT 8:38 PM EDT
Nautical Twilight 4:54 AM EDT 9:15 PM EDT
Astronomical Twilight 4:14 AM EDT 9:55 PM EDT
Moon 9:45 PM EDT (8/5) 9:48 AM EDT (8/5)
Length of Visible Light 15h 07m
Length of Day
14h 07m
Waning Gibbous, 86% of the Moon is Illuminated
Aug 5
Waning Gibbous
Aug 9
Last Quarter
Aug 17
New
Aug 24
First Quarter
Aug 31
Full

Hourly Weather History & Observations

Time (EDT) Temp. Heat Index Dew Point Humidity Pressure Visibility Wind Dir Wind Speed Gust Speed Precip Events Conditions
12:53 AM 75.9 °F - 73.0 °F 91% 30.16 in 8.0 mi SSW 5.8 mph - N/A   Clear
1:53 AM 75.0 °F - 73.0 °F 94% 30.15 in 7.0 mi Calm Calm - N/A   Clear
2:53 AM 75.0 °F - 73.0 °F 94% 30.15 in 6.0 mi SSW 4.6 mph - N/A   Partly Cloudy
3:53 AM 75.0 °F - 73.0 °F 94% 30.12 in 6.0 mi South 6.9 mph - N/A   Clear
4:17 AM 75.2 °F - 73.4 °F 94% 30.14 in 6.0 mi South 6.9 mph - N/A   Scattered Clouds
4:49 AM 75.2 °F - 73.4 °F 94% 30.14 in 6.0 mi SSW 5.8 mph - N/A   Mostly Cloudy
4:53 AM 75.9 °F - 73.9 °F 94% 30.12 in 6.0 mi SSW 5.8 mph - N/A   Mostly Cloudy
5:15 AM 75.2 °F - 73.4 °F 94% 30.14 in 6.0 mi SSW 5.8 mph - N/A   Overcast
5:25 AM 75.2 °F - 73.4 °F 94% 30.14 in 6.0 mi SSW 6.9 mph - N/A   Overcast
5:51 AM 75.2 °F - 73.4 °F 94% 30.14 in 7.0 mi SSW 6.9 mph - N/A   Overcast
5:53 AM 75.9 °F - 73.9 °F 94% 30.12 in 7.0 mi SSW 8.1 mph - N/A   Overcast
6:53 AM 77.0 °F - 73.9 °F 90% 30.12 in 6.0 mi SSW 6.9 mph - N/A   Overcast
7:20 AM 78.8 °F - 75.2 °F 89% 30.14 in 7.0 mi SSW 8.1 mph - N/A   Scattered Clouds
7:29 AM 78.8 °F - 75.2 °F 89% 30.14 in 8.0 mi SSW 6.9 mph - N/A   Mostly Cloudy
7:37 AM 78.8 °F - 75.2 °F 89% 30.14 in 8.0 mi SW 6.9 mph - N/A   Mostly Cloudy
7:53 AM 79.0 °F - 75.0 °F 88% 30.12 in 9.0 mi SSW 8.1 mph - N/A   Mostly Cloudy
8:53 AM 81.0 °F 86.7 °F 75.0 °F 82% 30.11 in 10.0 mi SW 8.1 mph - N/A   Mostly Cloudy
9:00 AM 80.6 °F 86.2 °F 75.2 °F 84% 30.13 in 10.0 mi SW 8.1 mph - N/A   Mostly Cloudy
9:16 AM 80.6 °F 86.2 °F 75.2 °F 84% 30.12 in 10.0 mi SW 8.1 mph - N/A   Scattered Clouds
9:53 AM 82.9 °F 89.4 °F 73.9 °F 74% 30.09 in 10.0 mi SW 12.7 mph - N/A   Clear
10:53 AM 84.9 °F 92.1 °F 73.9 °F 69% 30.09 in 10.0 mi WSW 11.5 mph - N/A   Partly Cloudy
11:53 AM 86.0 °F 91.8 °F 71.6 °F 62% 30.10 in 10.0 mi WSW 16.1 mph 23.0 mph N/A   Clear
12:53 PM 89.1 °F 94.1 °F 70.0 °F 53% 30.04 in 10.0 mi SW 15.0 mph 26.5 mph N/A   Partly Cloudy
1:53 PM 91.0 °F 96.6 °F 70.0 °F 50% 30.02 in 10.0 mi SW 18.4 mph 27.6 mph N/A   Partly Cloudy
2:53 PM 91.0 °F 96.6 °F 70.0 °F 50% 29.99 in 10.0 mi West 12.7 mph 19.6 mph N/A   Mostly Cloudy
3:53 PM 91.9 °F 95.9 °F 68.0 °F 45% 29.96 in 10.0 mi WSW 19.6 mph 26.5 mph N/A   Partly Cloudy
4:53 PM 91.0 °F 95.6 °F 69.1 °F 48% 29.96 in 10.0 mi WSW 15.0 mph 21.9 mph N/A   Mostly Cloudy
5:53 PM 89.1 °F 93.7 °F 69.1 °F 52% 29.95 in 10.0 mi WSW 11.5 mph 19.6 mph N/A   Mostly Cloudy
6:48 PM 80.6 °F 82.7 °F 66.2 °F 61% 30.00 in 10.0 mi NW 17.3 mph 34.5 mph N/A   Mostly Cloudy
6:53 PM 78.1 °F - 68.0 °F 71% 29.99 in 10.0 mi NW 16.1 mph 28.8 mph N/A   Mostly Cloudy
7:13 PM 73.4 °F - 69.8 °F 88% 30.02 in 2.0 mi WSW 10.4 mph 25.3 mph 0.12 in Rain Heavy Rain
7:21 PM 73.4 °F - 69.8 °F 88% 30.02 in 10.0 mi West 10.4 mph - 0.12 in Rain Light Rain
7:53 PM 73.9 °F - 70.0 °F 87% 29.99 in 5.0 mi West 5.8 mph - 0.21 in Rain Rain
8:53 PM 73.0 °F - 70.0 °F 90% 30.01 in 10.0 mi SSW 6.9 mph - 0.06 in Rain Light Rain
9:53 PM 73.0 °F - 71.1 °F 93% 30.00 in 10.0 mi South 6.9 mph - 0.00 in Rain Light Rain
10:10 PM 73.4 °F - 71.6 °F 94% 30.03 in 10.0 mi SW 6.9 mph - 0.00 in Thunderstorm Overcast
10:31 PM 73.4 °F - 71.6 °F 94% 30.03 in 10.0 mi WSW 6.9 mph - 0.01 in   Overcast
10:43 PM 73.4 °F - 71.6 °F 94% 30.03 in 10.0 mi SW 5.8 mph - 0.01 in Thunderstorm Overcast
10:53 PM 73.0 °F - 71.1 °F 93% 30.01 in 10.0 mi SSW 6.9 mph - 0.01 in   Overcast
11:11 PM 73.4 °F - 71.6 °F 94% 30.03 in 10.0 mi SSW 4.6 mph - N/A   Overcast
11:33 PM 73.4 °F - 71.6 °F 94% 30.03 in 10.0 mi SSW 5.8 mph - N/A   Overcast
11:53 PM 73.0 °F - 71.1 °F 93% 30.00 in 10.0 mi SSW 4.6 mph - 0.00 in Rain Light Rain